Theta_e
286 286 285 285 284 283 283 283 282 282 282 281 280 280 279 279 278 278 278 277 277 277 277 276 276 275 275 276 275 275 274 274 275 274 274 274 274 274 274 274 274 274 274 274 275 275 275 274 274 275 275 274 275 275 275 275 275 275 276 276 275 275 275 274 272 273 275 277 276 276 277 278 277 277 277 278 278 279 281 280 280 280 280 281 281
285 285 284 284 282 282 281 281 281 280 279 279 278 278 277 278 277 277 276 277 276 276 276 276 275 275 275 275 275 274 274 274 274 273 273 273 272 276 275 273 273 273 273 273 274 276 274 273 274 274 275 274 274 274 274 274 274 274 274 275 273 274 274 274 273 272 272 275 275 276 276 277 275 277 276 276 277 278 278 278 279 279 280 280 280
284 284 283 282 281 281 280 280 279 279 278 278 277 277 276 277 277 276 276 276 276 275 275 275 275 275 274 275 274 274 274 273 273 273 273 272 272 272 273 272 272 272 272 273 273 273 273 273 273 273 276 273 273 274 274 274 274 273 273 274 273 273 273 274 273 272 272 273 275 274 274 275 275 274 275 276 277 277 276 277 277 278 279 279 279
283 283 282 281 281 280 280 279 278 277 277 276 276 276 276 276 277 276 276 275 275 275 274 274 274 274 274 273 273 273 273 272 272 272 272 272 271 272 271 272 272 272 273 272 273 273 273 272 273 273 273 272 273 272 273 273 273 272 272 272 273 273 273 273 273 272 272 271 272 272 274 273 273 274 275 276 275 275 276 276 276 276 277 278 279
283 282 281 280 280 279 279 278 277 276 276 275 275 275 275 275 275 275 275 275 274 274 274 274 273 273 274 273 273 272 272 272 272 271 271 271 271 271 271 272 272 272 272 273 275 273 272 272 272 272 272 272 272 272 272 271 272 272 271 272 272 272 273 273 272 272 271 270 271 272 273 273 273 274 274 274 274 274 275 274 275 275 276 277 277
282 282 281 280 279 278 278 277 276 275 275 275 275 275 275 274 274 274 274 273 273 273 272 272 272 271 272 272 271 271 271 271 271 271 271 271 271 271 272 272 273 272 272 273 272 272 272 272 272 272 272 272 271 272 271 271 271 271 271 271 271 272 271 271 272 271 271 271 271 270 271 271 272 272 273 273 273 272 272 273 274 275 275 274 275
282 281 280 279 279 278 277 276 276 275 275 275 274 274 275 274 273 272 272 272 272 271 271 271 272 271 271 271 271 271 271 271 271 271 270 271 272 272 272 272 272 272 272 273 273 273 273 273 272 272 272 272 271 271 271 271 272 271 271 271 271 271 271 271 272 271 271 270 270 270 270 272 272 270 272 273 273 272 271 271 271 273 274 274 274
281 280 280 279 278 277 276 276 276 276 275 274 274 274 274 273 272 272 272 271 271 271 271 271 271 271 271 271 271 271 270 270 270 270 271 271 271 272 272 272 272 272 272 273 273 273 273 272 272 272 272 272 272 271 272 272 272 271 272 272 272 272 271 271 271 271 270 269 269 269 270 270 271 272 273 273 272 271 272 271 270 271 272 274 274
281 280 279 279 278 278 277 277 276 276 275 275 274 273 273 272 272 271 271 271 272 270 271 270 270 270 270 270 270 271 270 270 271 269 269 271 273 273 273 273 273 272 272 272 272 272 272 272 272 272 273 276 277 277 276 276 273 271 272 273 272 272 271 271 270 270 269 269 268 269 269 269 270 270 270 271 270 270 272 272 271 272 273 273 274
281 281 280 279 278 278 277 276 275 275 275 274 274 274 273 272 272 272 271 269 269 269 269 270 270 270 269 269 270 270 270 271 272 274 274 273 273 274 273 273 273 273 272 271 271 272 272 272 273 275 276 276 276 276 276 276 276 275 274 273 273 272 271 270 270 270 269 268 268 268 268 268 269 270 271 271 272 273 272 272 271 272 273 272 273
281 281 280 279 279 278 277 276 275 275 275 275 274 273 273 272 271 270 269 268 268 268 269 269 268 269 269 268 268 269 270 270 274 275 275 276 275 274 273 273 273 273 272 271 270 270 271 272 271 273 273 274 273 274 275 275 276 276 276 276 276 273 271 270 270 270 269 269 269 269 269 269 270 272 271 272 272 272 272 272 272 272 271 270 269
281 281 280 279 278 277 276 276 275 275 274 274 273 272 272 270 269 267 266 266 267 266 267 268 268 268 268 268 268 268 269 273 274 275 275 276 276 275 274 273 273 272 272 272 271 271 270 270 271 271 271 271 271 271 272 274 274 275 275 276 276 276 276 273 271 270 270 269 269 270 270 270 271 272 272 272 272 272 273 273 272 272 271 271 271
281 281 280 279 278 277 277 276 275 274 274 273 272 271 270 270 268 267 266 266 266 266 268 268 267 267 267 267 266 267 268 272 274 275 275 275 276 275 274 273 272 272 272 272 272 271 270 269 269 270 270 272 272 271 270 270 273 274 275 275 275 275 275 276 277 274 273 272 271 271 271 271 271 271 272 272 274 272 273 272 273 273 273 272 272
281 281 280 279 278 277 276 276 275 274 273 272 271 270 269 268 267 266 266 267 267 266 266 266 266 265 266 266 265 266 266 270 273 274 275 275 276 275 273 273 272 272 272 272 271 270 269 268 268 269 269 269 270 270 270 270 270 271 271 272 272 273 276 277 277 277 276 273 272 270 272 273 271 273 274 275 273 272 272 272 273 273 273 273 275
281 281 279 278 277 277 276 275 274 273 272 271 270 269 268 268 268 267 267 267 266 266 265 264 264 264 263 264 263 264 266 271 273 274 275 275 275 275 273 272 271 271 271 271 270 269 269 269 269 269 269 269 269 271 271 272 272 272 272 272 272 273 273 273 272 272 273 273 273 273 273 274 274 274 275 275 275 275 275 274 274 274 275 276 275
280 280 279 278 277 277 276 275 274 272 271 270 269 268 268 268 267 267 266 266 265 265 264 264 264 264 264 262 263 262 264 271 273 274 274 274 275 273 271 270 270 270 270 270 270 270 270 270 269 269 269 270 272 275 275 274 273 273 272 273 273 274 274 276 277 278 276 276 276 275 276 276 279 278 278 278 278 277 277 277 277 275 273 271 270
280 279 278 277 277 277 276 275 273 271 270 269 268 268 268 266 266 266 265 267 266 265 264 263 263 263 262 261 261 262 263 267 271 272 273 274 274 270 270 269 269 269 270 270 270 271 271 270 270 270 271 271 273 276 276 276 274 274 273 273 273 273 273 275 278 280 280 280 280 281 281 281 281 281 281 281 278 277 275 273 271 272 271 270 270
279 278 277 277 277 277 276 275 273 270 269 269 268 268 267 266 266 266 265 265 265 264 263 262 262 262 262 261 262 260 261 265 270 272 273 274 273 271 270 269 269 269 269 270 271 271 271 272 272 271 271 271 275 276 278 277 274 274 273 273 272 273 274 275 276 276 279 279 279 279 279 279 279 279 278 278 278 277 273 270 272 273 271 271 270
279 278 278 278 277 276 275 273 271 270 269 269 268 268 267 266 266 265 264 264 264 263 263 262 261 261 261 261 265 263 261 264 269 271 272 273 272 270 269 269 268 268 269 269 270 270 271 272 273 274 274 274 277 277 278 277 275 274 274 273 272 271 272 273 273 273 274 273 272 272 272 273 272 271 272 276 277 276 274 272 272 271 270 270 270
279 279 278 277 275 273 273 272 271 271 270 268 267 267 266 265 264 264 263 263 263 262 262 262 261 261 261 260 261 261 261 261 263 269 271 272 273 271 270 269 268 268 269 269 269 270 271 271 273 275 276 276 277 278 278 278 275 274 273 272 270 269 272 273 273 272 271 270 269 269 269 269 270 270 270 270 271 272 273 273 273 272 271 270 270
279 277 276 274 273 272 271 271 270 269 268 267 267 266 265 265 264 263 262 262 261 261 261 260 260 260 260 261 260 260 261 260 262 269 271 272 273 272 270 269 269 269 269 269 269 269 270 271 272 274 276 276 277 277 277 277 277 274 272 270 271 273 275 271 270 271 268 268 267 267 267 268 268 268 269 269 270 271 271 273 273 273 272 270 270
277 275 274 273 272 271 270 269 268 267 266 266 265 264 263 263 263 262 261 261 261 260 259 259 258 259 260 260 260 260 262 265 261 267 270 271 272 273 271 270 271 270 269 270 270 271 271 271 271 274 275 276 276 277 277 276 276 272 270 274 275 275 271 268 266 266 266 266 266 265 265 266 267 267 269 269 270 271 271 271 272 272 272 271 270
275 275 273 272 270 269 268 267 266 265 265 265 264 263 262 261 261 261 261 260 260 259 258 258 259 259 260 261 261 261 261 263 268 266 270 271 272 273 274 273 274 273 271 270 270 271 272 273 272 274 275 276 276 276 275 275 273 271 274 274 274 273 268 264 264 263 263 263 263 263 263 264 264 265 266 267 268 269 269 269 270 270 270 271 272
274 273 271 270 268 267 265 265 264 263 263 263 262 261 261 260 260 260 260 260 259 258 259 259 259 259 259 260 261 262 262 262 267 270 269 272 273 273 274 274 275 273 272 272 272 273 272 272 273 275 275 275 275 275 274 272 270 273 273 273 272 268 263 262 261 261 262 262 262 262 262 263 264 264 265 266 266 267 267 268 268 269 269 269 270
273 271 269 268 266 264 263 262 262 261 261 262 262 261 259 259 259 259 259 260 260 259 260 260 260 260 260 260 260 261 262 263 262 267 270 271 272 273 273 273 274 274 272 272 273 272 274 275 275 274 274 274 274 273 270 270 271 272 272 271 268 260 261 260 260 261 261 261 261 262 262 263 264 264 266 266 266 267 267 267 268 268 269 269 270
271 270 268 266 265 263 262 260 260 260 260 261 261 261 260 260 260 260 259 259 260 260 260 261 260 260 260 259 260 261 260 262 261 262 268 269 269 271 272 273 273 273 273 273 274 275 275 275 274 273 272 271 268 266 265 266 270 270 269 268 262 261 259 260 261 262 261 262 262 261 262 263 264 265 266 266 265 265 265 265 266 266 267 267 267
270 268 266 265 263 262 262 261 259 259 258 259 260 260 260 260 261 261 260 260 260 260 260 261 260 260 259 258 260 260 260 260 262 262 262 263 264 267 269 270 272 272 272 271 271 269 270 270 269 271 270 270 269 269 268 267 265 264 262 261 261 260 261 260 261 261 262 261 262 262 263 263 264 264 263 263 263 264 265 266 265 265 266 266 266
269 268 265 264 262 262 262 261 260 259 259 260 260 260 260 260 261 262 261 261 261 260 260 261 261 260 259 259 259 259 259 260 261 261 261 262 266 268 269 269 270 270 270 270 269 269 267 268 267 263 262 261 262 259 260 260 261 261 260 260 260 261 264 265 265 261 261 262 262 263 262 262 261 262 263 263 263 264 266 265 265 265 266 266 265
267 265 264 263 262 262 262 261 260 259 259 259 260 261 261 261 261 261 261 261 262 262 261 261 261 260 260 260 260 259 260 262 263 268 267 269 268 268 269 270 270 270 271 273 269 267 265 261 259 260 258 259 259 258 258 259 259 259 259 259 259 260 259 257 258 259 260 260 260 261 261 261 261 262 263 263 264 264 265 265 265 264 265 265 264
265 264 263 263 261 261 261 260 260 260 259 259 259 260 264 265 264 262 262 267 269 270 268 262 261 261 260 261 263 262 262 264 269 271 272 272 273 274 273 273 274 273 274 274 270 263 260 258 258 258 258 256 257 258 258 257 258 258 258 262 261 259 259 259 259 260 260 261 261 260 261 261 262 263 263 264 264 264 265 266 264 264 264 263 263
266 264 263 263 262 262 262 261 261 260 260 259 259 259 257 263 269 269 268 267 269 271 271 271 270 269 265 262 266 271 271 271 272 272 273 273 273 273 273 273 274 274 272 269 265 261 258 257 258 257 257 256 256 257 257 257 257 257 258 258 258 259 260 258 259 260 261 260 261 261 262 262 263 264 264 264 264 264 263 264 264 264 264 263 263
267 265 264 263 263 262 262 261 261 260 260 260 260 259 260 259 261 269 271 270 270 271 271 272 272 271 271 269 267 267 271 272 272 272 272 272 272 273 273 273 273 272 271 271 262 259 257 256 256 256 256 256 257 257 256 256 256 256 257 257 257 258 259 259 260 260 260 260 261 262 263 264 264 264 264 264 264 263 263 263 263 263 263 263 263
267 265 263 263 263 262 262 261 261 261 260 260 259 260 260 261 260 261 267 272 272 271 271 272 272 272 273 273 273 271 270 270 271 271 271 272 272 272 272 273 272 271 270 263 257 256 255 255 255 255 255 256 256 255 255 255 256 256 256 256 257 258 259 260 261 260 260 261 262 262 263 264 263 263 263 263 263 262 262 262 262 262 262 262 263
267 265 264 263 262 262 262 262 261 261 261 260 260 260 261 262 262 262 263 264 266 269 272 272 272 272 272 272 271 272 271 271 271 271 271 271 271 272 272 270 270 271 268 260 256 254 254 254 255 255 254 255 256 255 256 256 256 256 256 256 258 258 259 259 259 259 259 260 261 263 264 263 263 262 262 262 262 262 261 262 262 262 262 263 263
265 264 263 263 263 263 262 262 261 261 261 260 260 260 261 261 262 262 262 262 262 261 262 264 269 271 268 269 270 270 270 270 270 270 271 271 271 272 271 264 262 260 260 256 255 254 254 255 255 255 254 255 255 255 255 254 255 255 256 256 256 256 257 258 258 259 259 260 262 263 264 263 262 262 262 262 261 261 261 261 262 262 263 263 263
265 265 263 263 263 262 262 262 262 261 261 260 260 260 260 260 261 260 260 260 260 259 258 259 258 266 269 268 268 269 269 270 270 270 270 270 271 271 263 260 259 257 256 254 254 255 255 255 255 255 254 254 254 254 255 255 255 255 255 255 256 256 256 257 258 259 261 261 262 263 264 262 261 261 260 261 261 261 261 261 262 262 263 263 264
264 264 263 263 262 262 262 261 261 261 263 260 260 259 259 259 259 259 259 259 258 257 257 255 255 256 261 260 263 267 269 268 269 269 269 269 271 266 261 260 258 255 255 254 254 254 255 255 255 255 254 254 254 254 254 254 254 254 257 257 255 255 255 257 259 261 260 260 260 262 263 263 262 261 260 260 261 261 261 261 261 262 263 263 264
264 263 263 262 262 261 261 260 260 263 261 260 259 259 259 259 258 258 258 257 257 257 256 255 258 255 254 255 261 258 258 265 267 267 267 268 266 261 260 258 256 254 254 252 253 253 254 254 252 254 254 254 254 254 254 254 254 253 254 254 255 256 259 259 260 258 258 259 260 261 262 263 263 262 261 260 260 260 260 261 261 261 262 262 263
262 264 264 264 264 261 260 260 260 260 259 259 259 259 258 258 258 257 257 257 257 256 255 254 254 254 254 253 252 257 258 255 255 256 257 258 257 257 255 254 253 253 253 253 253 253 252 253 254 253 254 253 255 254 253 255 253 253 253 253 254 254 255 255 255 256 257 258 259 261 262 263 263 262 261 261 260 260 260 260 260 260 260 261 262
261 262 263 264 263 262 260 259 259 259 259 258 259 258 258 257 257 257 257 256 256 255 255 255 254 254 253 252 252 252 252 253 253 253 253 253 253 252 253 252 252 253 253 253 252 252 252 253 252 253 253 253 254 254 253 254 253 254 253 253 253 254 255 255 255 256 256 257 259 260 262 263 263 262 262 261 260 261 261 260 260 260 260 261 262
261 261 261 264 262 261 259 258 258 258 258 258 258 258 257 257 257 257 256 256 255 254 254 254 254 252 254 258 262 261 253 253 253 253 253 253 253 251 252 252 253 252 253 253 253 252 253 252 252 253 252 253 253 254 253 253 253 253 253 254 254 255 255 255 255 255 256 257 258 259 261 263 263 262 262 262 264 262 260 260 260 260 260 261 261
260 260 261 261 261 259 258 258 258 258 258 257 258 258 258 257 257 257 256 256 255 254 254 253 252 251 257 262 263 265 260 257 256 256 255 255 254 253 253 253 252 252 253 253 253 254 253 253 253 253 253 254 253 253 252 252 252 252 253 253 253 254 254 254 255 255 255 256 257 259 261 262 262 263 263 264 261 260 259 259 259 259 259 260 260
259 259 259 259 259 258 258 258 258 257 257 257 258 258 258 258 257 256 256 255 255 254 252 252 251 251 254 261 262 264 263 261 259 259 257 256 254 253 252 254 253 253 253 253 254 253 254 253 253 253 253 254 254 253 253 253 251 251 252 252 253 253 253 254 254 255 255 256 258 260 260 261 261 261 261 262 261 260 259 259 259 258 259 259 259
258 258 258 258 258 257 257 257 257 257 257 257 258 257 257 257 256 256 255 254 253 252 252 252 251 251 251 254 257 257 256 257 256 256 255 254 253 253 253 252 252 252 253 253 253 253 253 253 253 253 252 253 253 251 253 253 251 251 251 252 252 253 253 253 254 254 254 254 256 258 258 260 260 260 260 261 260 259 259 259 259 258 258 258 258
258 258 258 258 258 258 258 258 258 257 257 257 256 256 256 256 255 255 255 253 252 252 251 251 251 251 251 250 250 251 251 252 252 252 253 253 253 253 252 251 251 252 252 251 251 252 252 253 253 252 252 252 252 251 252 252 251 252 252 252 251 252 253 253 253 252 253 253 255 256 258 259 259 258 259 260 261 260 260 259 258 259 258 258 258
258 258 259 259 258 258 257 257 257 257 256 256 256 255 255 255 254 253 253 252 252 251 251 251 251 251 251 250 250 251 252 251 252 252 252 252 252 252 251 250 250 251 252 252 250 251 252 252 252 252 252 252 251 251 251 251 251 251 251 251 252 253 253 253 253 253 253 254 254 256 257 257 257 257 259 260 261 261 260 259 258 258 257 257 258
259 259 259 258 258 257 257 257 256 256 256 256 255 255 254 254 254 253 252 252 251 252 251 250 250 250 251 251 251 251 252 252 252 252 252 252 251 251 251 249 251 251 252 251 248 251 251 252 252 252 252 252 251 251 251 251 250 251 252 252 252 252 253 253 253 253 253 254 254 254 255 255 255 256 257 259 260 261 260 259 259 258 257 258 257
258 258 258 257 257 256 256 256 255 255 255 255 255 255 254 253 253 252 251 251 251 250 250 250 250 251 251 252 252 252 252 252 251 251 251 251 251 251 251 250 251 251 251 251 250 251 251 251 251 251 252 252 252 252 251 251 250 250 251 251 252 252 253 254 253 253 253 253 253 254 255 255 255 256 257 259 260 261 260 259 259 258 258 258 258
258 258 257 257 257 256 256 255 255 255 255 254 254 254 253 252 251 250 251 250 250 250 251 251 251 251 252 252 252 252 252 251 251 251 251 251 251 251 251 251 250 251 250 251 251 250 251 251 251 252 252 252 252 251 251 251 251 251 251 251 252 254 254 255 255 254 255 254 254 254 254 255 255 256 258 260 260 260 260 259 258 258 258 257 257
258 257 257 257 256 256 256 256 255 255 254 254 253 252 251 250 250 250 250 250 250 251 252 252 252 252 252 252 252 252 252 252 252 252 252 251 251 250 251 250 250 250 250 250 251 250 250 250 250 251 251 252 252 252 251 251 251 251 251 251 253 254 254 255 255 255 255 253 253 254 254 255 257 258 259 259 259 260 260 259 258 258 258 257 257
257 257 256 256 256 256 255 255 255 254 253 252 252 251 251 251 251 251 251 251 252 252 252 252 252 252 252 253 253 253 252 252 253 253 252 252 251 251 251 250 250 250 250 250 250 250 250 250 251 251 251 252 252 252 252 251 251 251 252 253 254 254 255 255 254 255 256 256 256 256 256 257 258 259 259 259 259 259 260 260 259 258 257 256 257
Wind_Speed
8 7 8 8 9 8 7 6 7 7 8 7 7 6 6 5 5 5 5 6 5 6 6 5 4 3 3 3 3 2 3 3 3 3 3 4 4 4 4 4 4 4 4 4 4 4 3 4 4 4 4 4 4 5 5 5 5 5 5 5 5 3 4 5 9 14 14 8 7 8 5 9 9 5 11 12 11 12 11 10 11 11 10 9 10
8 8 7 8 7 8 7 6 6 7 7 6 7 6 5 5 5 5 7 5 6 5 5 3 3 2 2 2 2 2 2 2 3 3 3 3 4 3 4 4 4 4 4 4 4 4 3 4 4 4 4 3 4 5 5 5 6 5 4 4 5 6 4 6 8 9 16 14 9 4 6 6 10 6 8 12 12 11 13 12 9 9 10 10 10
7 8 8 8 8 7 7 7 7 7 7 6 6 5 4 4 4 6 6 5 4 4 4 3 2 1 1 1 2 2 2 2 3 3 3 3 3 3 4 4 3 3 3 3 3 3 3 4 4 4 3 4 5 5 4 5 4 4 5 4 5 5 5 5 7 10 13 15 11 8 6 7 8 10 10 9 11 11 12 11 10 10 10 12 12
9 8 8 8 8 8 7 7 8 7 7 6 6 5 5 5 5 6 4 4 5 3 3 2 1 1 1 2 1 1 2 2 2 3 2 2 3 3 3 3 3 3 3 3 4 3 4 4 4 4 4 4 5 5 5 4 5 4 4 4 5 7 6 4 5 7 10 14 14 8 7 9 10 9 8 9 10 9 9 11 11 12 12 11 10
9 8 9 10 8 8 8 7 7 7 7 6 6 6 5 5 4 4 4 4 3 3 3 2 1 2 2 1 1 1 1 1 2 2 2 2 2 2 3 2 3 3 3 4 4 4 4 4 4 4 4 5 5 5 5 5 4 4 5 6 6 6 5 6 7 6 9 12 13 9 7 8 8 9 7 9 9 8 9 10 11 11 11 9 8
9 10 9 10 9 9 8 7 7 7 7 7 7 6 6 5 4 4 4 3 3 3 2 1 3 1 1 1 1 0 1 1 1 1 1 1 2 2 2 3 3 3 3 4 4 4 4 5 4 4 4 5 6 5 4 4 4 5 6 6 6 6 6 6 6 7 8 10 11 13 8 8 11 8 7 8 10 11 10 9 9 8 9 11 10
9 10 9 9 9 9 8 8 8 8 7 7 6 6 6 5 5 4 3 3 3 3 3 1 0 3 0 1 0 1 1 0 0 0 1 2 3 3 3 3 3 3 3 4 4 4 5 4 4 4 5 5 5 6 4 4 6 6 5 6 5 6 7 7 8 9 9 11 11 10 12 10 9 12 9 7 9 8 11 11 9 7 8 10 11
10 10 10 9 9 9 8 8 8 8 7 7 7 6 6 5 5 4 3 2 2 3 2 3 1 2 1 1 0 0 0 0 1 1 2 2 2 2 2 3 3 4 4 4 4 4 4 4 4 5 5 5 5 5 4 6 6 6 5 7 9 9 9 8 8 9 10 10 10 11 10 10 10 9 10 10 9 7 6 8 12 11 10 8 7
11 11 10 10 10 9 9 8 8 8 9 8 8 7 6 5 4 4 3 2 3 2 1 2 0 1 2 2 1 0 1 1 1 2 1 2 2 3 4 4 5 4 4 4 4 4 5 5 4 4 6 9 14 12 12 12 8 7 6 7 9 9 9 9 8 9 10 10 11 10 11 11 10 11 12 11 10 10 9 8 11 10 10 10 9
12 11 11 10 10 10 10 9 9 9 9 9 8 7 6 6 5 4 3 3 2 2 1 1 2 1 1 1 1 1 1 1 2 2 2 1 2 3 4 5 5 6 6 5 4 4 4 5 5 12 13 14 14 15 14 14 14 10 9 10 8 7 7 7 7 7 9 11 11 11 12 12 12 12 13 13 13 11 10 10 11 11 10 11 10
12 12 12 11 11 11 10 10 10 10 9 9 7 7 7 5 4 3 3 3 2 1 1 2 2 2 2 1 2 1 1 1 4 4 3 4 4 4 4 5 5 6 6 5 5 5 4 5 4 7 8 9 9 14 14 14 15 16 16 15 13 9 7 8 7 7 8 9 8 9 11 14 14 13 13 14 12 11 10 10 11 11 11 12 12
13 12 11 12 12 12 11 11 11 10 9 8 8 7 7 6 5 4 4 3 2 2 2 3 2 2 1 2 2 2 1 4 5 4 4 4 5 4 4 4 5 6 6 6 5 5 5 5 4 4 4 6 7 6 9 14 15 15 15 15 15 15 14 11 10 9 8 9 10 10 11 14 14 13 13 13 12 12 11 12 12 12 12 11 12
12 12 11 12 12 11 11 11 10 10 9 9 8 8 8 7 5 5 5 4 3 3 4 3 2 2 3 3 3 2 1 5 5 5 5 5 6 6 4 5 5 6 6 7 7 6 5 6 5 5 5 11 9 7 7 7 11 16 16 16 16 16 17 19 19 14 11 12 12 13 11 13 16 13 12 14 14 15 14 12 12 13 12 15 10
12 12 11 12 12 11 11 10 10 10 9 9 9 8 8 7 5 4 4 4 4 3 3 3 2 3 3 3 3 2 2 5 6 6 5 6 6 6 4 5 6 6 7 7 5 5 5 6 6 6 5 5 6 8 8 8 8 8 9 10 10 14 19 21 22 24 20 14 13 15 14 13 13 13 14 14 15 14 13 14 11 13 13 12 14
12 12 12 11 11 10 12 10 10 9 9 9 9 9 8 7 6 6 6 5 6 5 4 3 4 4 3 2 2 3 3 6 7 7 6 7 7 6 4 4 5 5 6 6 5 5 5 6 6 7 7 7 6 10 10 10 9 9 10 11 11 11 10 10 11 12 12 11 14 14 15 14 15 16 16 15 15 14 14 14 15 15 14 13 11
12 11 11 11 12 12 12 11 10 9 10 9 9 9 8 8 8 6 5 4 4 4 3 4 4 4 4 3 2 4 4 7 7 6 7 6 7 3 3 4 4 5 5 6 6 6 6 6 6 7 7 7 11 17 16 13 11 12 12 11 10 10 10 12 19 19 16 12 11 10 10 13 18 15 15 12 11 11 11 11 9 9 10 10 11
12 12 12 12 12 12 12 12 11 11 10 10 10 10 10 8 6 5 6 5 5 5 5 4 4 4 4 4 4 4 4 6 7 6 7 7 5 1 4 4 5 5 6 6 6 7 7 7 8 8 10 10 14 18 19 18 11 11 10 12 13 12 12 10 17 22 23 23 25 26 26 26 27 28 28 31 23 19 14 13 12 11 11 12 9
11 10 11 12 13 12 12 12 12 11 11 12 11 9 7 5 7 6 8 7 6 6 4 4 4 4 4 5 4 4 5 6 8 8 8 8 6 3 3 4 5 5 5 6 6 6 7 12 12 10 11 11 16 18 19 16 10 11 13 14 13 12 9 8 7 10 19 22 22 23 24 25 26 28 27 28 28 21 13 14 13 11 11 9 11
11 11 12 12 12 11 10 11 11 12 12 11 10 11 10 9 7 6 6 5 5 5 4 5 4 4 5 4 6 6 5 7 8 9 9 7 5 4 4 4 5 5 5 5 5 5 7 8 13 12 12 13 19 18 19 16 11 11 11 11 11 11 11 12 13 13 9 8 9 11 13 16 15 13 14 24 24 20 12 12 11 10 12 12 12
12 12 11 10 9 9 9 11 11 12 12 9 8 8 7 7 8 7 5 5 5 4 4 5 5 5 4 4 5 4 4 5 5 10 8 8 9 5 3 4 5 6 5 5 5 6 7 6 7 13 16 17 17 19 19 21 15 12 10 9 10 13 11 12 10 10 11 11 12 11 12 11 11 11 11 12 12 11 12 10 10 10 10 10 10
10 8 8 8 8 9 8 10 11 9 8 10 9 7 7 8 8 7 7 5 5 5 5 5 5 5 4 5 5 5 5 5 6 10 9 9 9 8 3 5 6 6 5 6 6 6 5 5 5 11 15 15 17 20 21 21 20 12 8 8 10 14 16 10 11 15 10 10 10 9 9 9 9 9 9 9 9 9 9 11 9 10 10 10 10
7 8 9 9 9 9 9 7 7 8 8 9 9 7 5 6 7 7 6 6 6 6 5 4 4 4 5 6 6 6 5 8 5 9 9 8 8 10 5 6 7 6 7 6 5 4 6 7 5 8 14 18 20 20 22 20 20 10 9 16 19 19 12 9 8 8 8 8 8 9 9 9 8 8 8 8 8 8 9 10 11 12 11 11 11
8 9 9 9 9 9 8 10 9 8 9 9 10 9 7 8 7 7 7 6 6 6 5 4 4 6 6 6 5 5 5 5 9 6 9 8 9 9 11 9 11 7 5 5 7 7 6 4 4 12 18 18 19 20 20 20 14 10 17 17 16 16 12 6 8 7 7 8 8 8 8 8 9 9 10 10 11 11 12 12 12 13 12 11 12
8 9 9 9 9 8 8 8 8 7 9 9 8 9 8 7 7 7 6 7 6 6 4 4 5 6 7 6 5 5 5 4 7 9 7 9 9 10 10 11 11 6 6 6 4 4 3 3 6 15 17 19 20 19 18 16 11 16 16 16 15 12 6 7 5 6 7 7 7 8 8 8 8 9 10 11 12 13 13 12 12 13 13 12 13
9 9 9 9 9 8 7 8 8 7 7 9 10 9 8 8 8 5 6 6 6 6 5 5 7 7 6 6 4 4 5 4 3 5 8 7 9 9 9 9 9 11 7 5 6 6 9 13 16 16 17 19 20 18 13 13 16 15 15 16 12 4 6 5 6 6 7 7 7 8 7 7 9 10 11 12 12 12 10 10 10 10 10 10 10
8 9 8 8 9 9 9 7 6 6 6 5 6 7 10 9 8 7 7 6 6 7 6 6 7 6 6 5 5 5 3 2 2 3 5 6 5 6 7 8 9 11 11 9 12 14 15 15 15 16 15 14 9 5 5 7 14 15 15 13 5 6 5 6 6 6 7 7 7 8 8 8 8 9 10 10 9 8 9 9 10 9 8 9 10
8 8 9 8 8 9 11 9 7 6 5 5 5 6 6 7 7 8 8 7 7 6 6 6 7 7 6 6 5 4 4 3 4 4 5 5 4 4 5 5 8 10 7 4 3 2 3 3 5 11 11 15 13 12 10 10 8 6 5 4 6 6 6 4 5 6 7 7 8 7 7 8 8 8 7 7 8 8 7 9 9 9 9 8 8
11 10 10 9 9 9 9 10 10 8 8 8 8 7 7 7 8 9 10 9 9 7 7 7 8 8 7 6 6 5 4 4 5 6 6 5 5 5 6 6 5 6 5 3 2 1 0 4 6 4 4 5 5 3 4 4 5 6 5 5 6 6 7 10 8 5 5 5 6 7 7 7 8 8 8 7 7 7 7 8 8 9 8 9 9
7 8 8 8 8 8 8 9 9 9 8 7 7 7 10 10 9 6 5 6 8 9 8 8 8 7 7 7 7 6 4 6 7 7 8 9 8 7 6 5 4 7 7 9 4 3 1 2 4 6 4 4 5 5 5 5 5 4 5 5 5 6 6 5 5 6 6 5 7 8 9 8 9 8 8 9 8 8 8 8 7 8 9 7 8
7 8 8 8 7 8 8 8 8 8 8 8 7 5 6 10 7 8 7 10 14 12 10 8 8 7 7 6 6 7 7 6 9 11 10 10 11 11 11 12 11 8 7 6 3 2 3 3 5 6 5 4 5 5 5 5 6 7 5 6 7 6 6 5 5 6 6 6 7 7 8 8 8 8 8 9 9 8 8 9 9 8 8 8 8
7 7 8 9 10 10 8 8 8 7 7 7 7 7 4 7 13 15 11 10 12 14 14 12 12 12 9 5 7 13 12 13 13 11 11 10 11 12 11 11 12 10 1 1 3 1 3 4 5 5 4 4 4 5 4 4 5 6 6 6 5 6 7 6 6 7 7 7 7 7 7 7 8 7 9 9 10 10 9 7 7 7 8 8 8
10 9 9 7 8 9 8 8 8 8 8 7 8 8 7 7 6 12 15 13 13 14 13 14 14 14 15 12 9 6 12 13 12 11 11 11 11 11 11 11 11 1 2 2 1 1 2 4 5 5 4 4 4 4 4 5 5 5 6 6 7 5 6 6 6 6 7 7 7 8 7 7 6 7 8 9 10 9 9 9 8 9 9 8 8
9 8 8 8 8 9 9 9 9 9 9 10 9 8 9 8 8 6 8 14 15 13 13 14 15 15 15 16 15 11 10 10 12 11 11 12 11 11 11 12 3 2 3 2 1 3 2 3 5 5 4 6 6 5 5 4 5 5 5 5 7 7 6 7 8 7 6 7 7 7 8 6 6 8 8 8 9 10 10 9 9 9 8 9 9
9 9 10 10 10 9 10 9 10 9 8 8 9 9 8 8 8 8 8 6 7 9 12 15 14 13 13 14 14 13 12 11 11 11 11 11 11 11 12 5 4 5 3 3 3 4 4 4 5 5 4 4 5 4 4 5 4 5 5 5 5 6 6 6 6 7 6 7 7 7 6 5 6 7 8 8 8 8 9 9 9 10 10 9 10
7 9 13 11 10 10 9 9 9 9 8 9 9 9 8 7 7 8 9 10 9 9 7 7 10 13 9 8 10 12 12 11 11 11 12 11 11 12 5 2 1 1 1 2 4 5 5 5 5 5 4 5 5 4 5 4 5 5 5 6 5 6 6 5 6 6 7 7 7 6 6 6 5 6 7 8 9 9 9 10 9 10 10 11 10
8 7 8 11 9 8 9 9 9 9 10 9 8 7 7 7 7 7 6 6 7 7 5 6 4 5 11 11 13 13 12 12 11 11 11 11 12 8 4 4 4 4 4 5 6 6 5 6 4 6 5 6 4 5 5 5 5 5 5 5 6 6 6 6 7 7 7 6 7 9 8 6 5 5 5 6 7 8 8 9 10 10 11 10 9
8 8 8 9 8 8 7 7 7 7 7 7 7 7 6 6 5 5 5 6 6 5 6 4 3 2 3 4 6 10 11 10 10 10 11 11 13 5 4 5 5 5 6 6 5 4 6 6 5 4 5 6 5 5 5 5 5 5 5 6 6 6 6 5 7 7 7 7 7 8 7 6 6 5 5 7 8 8 8 9 9 11 12 13 14
8 8 8 8 8 7 7 7 7 8 8 7 6 7 7 6 7 6 7 6 6 6 6 5 5 6 6 6 5 3 3 5 7 8 9 10 6 4 4 5 5 6 7 6 5 5 6 6 4 6 6 5 5 6 5 6 6 6 6 6 6 6 9 9 9 7 7 7 7 7 7 7 6 6 5 6 8 8 9 9 9 10 11 13 9
7 8 9 10 9 8 8 8 8 8 7 7 7 7 7 7 6 6 6 5 6 6 5 5 6 6 6 4 3 3 3 2 2 6 5 6 4 4 5 4 4 6 5 6 5 4 5 6 6 5 6 6 6 6 6 6 6 6 6 6 6 6 7 6 6 5 6 6 7 7 7 7 6 5 6 7 7 7 8 9 9 9 10 9 9
8 6 9 12 8 8 8 8 8 7 8 8 7 7 6 7 7 7 6 6 6 6 5 6 6 6 5 3 4 3 3 4 5 5 4 4 4 4 5 4 6 6 6 6 6 6 6 6 6 6 6 5 6 6 5 6 6 6 6 6 6 7 7 6 6 6 6 6 7 7 8 8 6 6 6 6 6 6 8 9 9 9 9 10 10
6 6 7 9 8 7 7 7 7 7 7 7 7 7 7 7 6 6 6 6 6 5 5 6 6 5 5 7 10 9 5 5 4 3 4 4 4 4 5 6 6 6 6 6 7 6 6 6 6 6 6 6 6 6 6 6 6 6 6 6 6 6 7 6 6 6 7 7 7 7 8 8 6 6 7 7 8 8 7 7 7 8 9 9 10
7 7 7 7 8 7 7 7 6 6 6 6 6 7 6 6 6 6 6 6 6 6 6 6 6 4 7 11 10 11 6 4 3 5 5 4 5 5 6 6 6 6 6 6 6 6 6 6 6 6 6 6 6 6 6 6 6 6 6 6 6 6 7 7 6 6 6 7 7 8 8 7 8 7 8 9 8 7 7 7 7 7 8 8 9
6 6 6 6 7 7 7 7 6 7 6 6 6 5 5 6 6 5 6 5 5 6 6 6 6 4 5 8 8 9 4 4 4 6 5 6 6 6 6 7 6 6 6 7 6 6 6 6 6 6 6 7 6 6 6 6 6 6 6 6 6 7 7 7 6 6 5 6 7 8 9 8 8 7 7 7 7 7 6 7 8 7 7 8 8
6 6 6 6 6 6 6 6 7 6 6 6 5 5 5 5 5 6 5 5 5 5 6 6 5 4 4 5 4 3 2 3 3 5 6 6 6 6 7 7 7 6 7 7 7 7 6 6 6 6 5 6 6 5 6 6 6 6 6 6 6 7 7 7 7 6 5 5 6 7 8 9 8 7 8 9 7 7 7 7 8 8 8 7 8
7 7 7 7 6 7 7 6 6 6 6 5 7 6 4 7 7 6 5 5 6 5 5 4 4 4 5 4 3 3 3 4 5 6 6 7 7 7 7 7 6 7 7 7 6 6 5 6 6 6 7 6 6 6 6 6 6 6 6 7 7 8 8 8 7 5 5 5 7 7 8 7 7 7 8 9 8 7 7 7 7 8 8 7 7
6 7 7 7 6 5 6 7 5 6 7 9 8 4 4 6 5 5 5 6 6 5 5 5 5 4 5 4 3 5 5 5 5 6 7 6 7 7 7 7 7 7 6 6 6 6 6 6 6 6 7 7 6 6 6 6 7 7 6 6 8 8 8 7 6 6 7 6 7 7 7 8 8 8 10 9 8 7 7 7 6 7 7 7 8
5 5 6 5 6 5 5 5 6 5 6 5 4 4 5 6 6 5 5 6 6 6 6 6 6 6 6 5 5 5 5 5 6 6 7 7 7 7 7 6 7 7 7 7 5 6 6 6 6 7 7 7 6 7 7 6 6 6 6 6 7 7 7 7 7 7 7 7 6 6 6 7 9 9 10 10 9 7 6 7 7 8 7 7 7
5 5 5 5 6 6 6 5 6 5 5 4 5 5 5 5 5 6 6 6 6 5 5 5 6 5 5 5 5 5 5 6 6 7 7 7 7 7 7 6 7 7 6 6 6 6 6 6 6 6 7 7 7 7 7 7 6 6 6 6 7 7 8 8 7 7 7 6 6 6 7 8 8 9 9 10 9 7 7 8 7 7 7 7 8
5 6 5 5 6 6 6 6 4 5 5 6 6 5 5 5 5 6 6 6 6 5 5 5 5 5 5 5 5 5 6 6 6 6 7 7 7 7 7 7 6 7 6 7 7 6 6 6 6 6 7 7 7 7 7 7 7 7 7 7 8 12 14 14 10 8 8 7 7 7 7 8 9 11 11 9 9 9 9 8 7 7 7 7 6
4 4 4 4 4 5 4 3 4 4 3 4 5 5 5 5 5 5 6 5 6 6 6 6 6 6 6 5 5 6 5 6 7 7 7 6 6 6 6 7 7 7 7 7 7 6 6 6 6 6 7 7 7 7 7 7 8 8 7 8 11 14 14 15 15 14 10 6 7 7 8 9 9 10 8 8 9 10 10 8 8 8 7 7 7
4 5 4 5 5 5 5 5 5 5 6 6 6 6 6 6 6 6 6 6 6 6 6 6 6 5 5 5 5 5 6 6 6 6 6 6 6 6 7 7 7 7 7 7 7 7 7 6 6 7 7 7 7 7 7 7 7 8 10 13 16 16 16 15 10 11 15 12 8 8 8 10 10 9 7 7 8 9 11 10 8 6 6 6 7
Wind_Direction
130 129 125 125 122 121 121 114 108 102 101 100 103 103 102 108 110 111 95 80 85 80 72 68 62 70 64 61 64 56 43 31 7 28 23 16 7 10 7 8 5 342 349 341 343 0 351 339 317 310 319 338 317 316 309 300 301 299 292 290 291 291 304 290 287 289 292 288 297 312 331 325 316 343 330 324 329 325 319 318 320 318 315 311 310
138 134 129 127 125 121 115 108 102 102 102 102 103 104 109 112 117 99 91 81 79 83 88 85 76 77 84 67 65 58 43 49 18 33 28 12 9 4 8 7 356 345 349 339 337 339 340 327 313 311 312 326 316 308 298 304 302 300 300 315 308 301 290 291 285 285 290 302 300 315 322 323 309 334 327 321 318 318 315 316 316 314 314 313 308
136 132 131 128 124 119 114 111 110 109 110 110 108 109 108 101 97 95 89 94 83 86 91 96 88 75 92 94 85 48 61 59 19 40 17 22 10 5 356 359 342 326 329 316 322 322 334 315 306 309 322 327 308 297 301 298 300 314 314 312 300 298 294 281 287 287 291 292 303 318 324 328 316 324 323 311 309 311 311 315 320 317 313 310 306
137 133 129 125 125 121 119 121 118 120 117 118 116 115 105 91 86 93 103 101 102 101 101 81 79 115 79 72 63 84 55 47 29 26 25 15 20 351 340 329 315 313 321 324 320 318 307 312 302 315 315 311 301 304 299 303 315 314 314 313 307 300 297 294 291 295 298 297 301 320 328 327 313 309 308 302 301 309 314 313 314 308 306 303 306
138 137 135 133 132 128 130 131 129 125 122 124 120 113 104 99 94 105 109 113 124 126 131 124 67 102 109 99 82 51 74 56 46 21 8 24 14 332 309 311 318 325 323 313 308 306 306 298 299 304 311 304 298 299 301 306 311 333 316 308 302 301 305 304 297 294 293 292 299 309 323 307 298 302 306 309 311 309 309 307 305 302 301 305 319
144 140 141 139 138 137 139 136 133 130 128 123 119 114 109 107 105 95 107 122 123 120 96 99 130 68 92 98 91 64 68 59 33 23 22 19 350 327 331 325 320 325 316 304 302 307 299 295 289 296 297 293 292 291 295 310 325 314 307 303 303 302 297 294 289 288 286 287 296 305 314 314 311 303 314 313 312 313 306 298 295 300 308 311 302
148 145 145 144 141 144 145 143 136 133 131 125 117 112 112 116 109 104 101 122 138 133 137 120 49 131 283 110 18 89 72 11 349 28 38 28 20 1 339 329 318 314 301 294 294 288 286 285 288 289 286 281 285 288 297 309 308 299 295 299 299 298 298 300 302 300 297 298 299 300 305 308 309 309 310 304 299 295 301 305 302 299 297 295 300
151 150 149 148 148 151 148 142 136 134 127 120 115 114 113 108 106 105 113 129 121 137 150 147 193 141 202 122 191 97 13 328 302 75 53 34 21 334 317 308 302 296 290 291 287 283 283 283 279 277 274 275 275 283 290 296 291 286 294 302 301 301 301 301 302 303 303 301 299 304 305 306 307 299 303 306 302 290 279 299 303 306 300 294 298
156 155 154 154 156 150 142 138 133 127 125 122 122 125 127 120 119 128 141 142 130 123 107 123 267 211 189 177 217 280 180 239 165 97 78 7 319 310 302 297 297 291 288 286 288 289 288 288 282 277 280 285 291 294 295 297 299 297 288 292 294 296 295 295 293 297 297 297 298 300 301 304 305 308 308 306 305 302 301 293 288 288 292 296 291
160 161 161 159 153 149 144 141 138 133 132 134 136 135 135 132 134 140 148 144 141 126 148 240 189 236 216 254 207 196 227 227 193 180 197 208 280 286 297 293 293 293 293 291 288 283 281 281 285 294 297 299 298 298 298 298 298 296 296 296 290 284 279 282 282 282 289 290 292 300 301 298 301 301 298 297 295 292 290 290 289 293 292 287 285
169 166 165 161 156 150 147 147 142 145 146 142 142 144 139 141 145 152 157 142 140 132 138 238 223 232 207 224 253 249 214 222 232 232 259 285 293 289 284 289 289 291 286 285 286 289 287 287 287 295 299 300 298 296 299 301 302 300 296 293 291 289 289 288 285 283 282 277 278 282 285 291 295 296 293 295 293 286 287 285 282 290 293 300 302
172 171 165 160 158 156 154 150 151 151 149 150 149 146 138 141 153 162 161 156 172 161 227 220 223 234 229 245 227 233 241 250 247 256 267 280 282 283 284 283 286 284 286 287 287 290 293 294 291 294 295 294 296 298 300 299 299 298 299 300 300 299 297 294 294 292 284 285 285 279 287 290 293 294 293 290 288 284 278 280 284 286 289 287 291
174 171 168 165 163 160 157 157 157 155 156 150 147 143 144 149 161 171 178 175 172 173 220 213 217 240 209 231 240 259 248 263 264 268 272 279 283 287 282 278 278 278 283 287 290 292 296 299 301 298 297 303 305 300 294 291 292 296 299 299 297 290 284 283 283 280 281 280 281 284 280 287 286 282 278 279 279 283 285 282 281 281 282 283 281
177 175 169 169 164 160 159 159 161 160 153 150 149 149 152 168 171 171 166 165 175 191 211 199 222 229 225 223 239 260 256 266 270 272 274 277 282 287 277 278 276 278 278 283 287 293 296 299 300 298 295 295 295 295 293 284 280 279 273 262 258 262 268 273 280 285 285 281 276 276 274 269 272 274 273 275 280 281 283 281 279 281 277 272 282
180 177 172 169 161 162 163 163 161 158 156 153 154 156 160 163 168 177 174 178 181 191 191 193 225 222 232 234 246 262 260 267 268 269 272 281 284 287 289 285 282 279 279 279 282 281 281 280 283 287 290 287 280 290 291 291 283 275 270 268 262 263 259 253 256 258 260 257 261 261 268 264 263 268 271 273 269 271 274 277 278 279 279 280 277
183 177 173 170 169 169 166 165 161 159 157 157 159 162 165 173 172 172 166 181 179 163 194 186 218 216 218 215 232 262 266 268 271 274 276 282 284 294 283 280 276 277 278 280 280 279 278 279 278 279 280 281 291 297 296 293 286 279 276 275 275 269 260 251 259 262 263 266 261 258 255 267 277 277 281 281 274 274 270 270 272 275 282 289 289
188 182 174 173 174 172 170 165 165 164 162 162 169 168 167 170 171 166 166 178 175 179 189 197 199 208 222 210 207 253 266 275 276 275 278 276 285 280 268 267 269 273 276 279 279 280 283 282 281 284 291 292 293 297 297 297 288 287 293 290 280 279 281 276 276 281 285 291 294 297 302 305 307 308 310 312 311 311 310 304 296 298 294 291 280
190 179 178 178 179 175 174 170 166 165 166 176 175 171 161 161 170 169 170 175 183 188 180 194 210 204 214 217 208 224 259 269 274 280 278 272 263 238 253 259 268 272 273 275 280 281 283 288 289 288 287 283 289 295 298 301 298 296 286 285 291 292 297 305 313 310 306 305 305 306 306 305 305 306 307 306 304 304 300 296 300 300 290 285 295
186 183 186 184 181 175 172 169 167 168 174 179 170 166 170 172 166 153 164 171 176 165 171 186 217 226 219 216 227 228 249 267 278 282 277 269 261 251 249 252 263 270 275 276 278 279 278 277 284 292 291 292 297 300 304 306 299 300 310 314 315 316 315 318 308 302 312 320 314 314 306 304 305 304 301 303 304 304 297 293 297 290 287 287 285
191 191 184 175 172 168 170 170 171 172 175 163 165 165 150 147 160 158 164 160 163 163 179 185 205 233 229 225 231 234 241 261 264 269 269 267 262 246 229 239 246 266 267 278 275 263 261 260 276 298 296 297 301 305 309 313 317 319 320 317 316 309 309 299 312 328 325 320 313 311 305 308 308 312 315 314 311 310 309 307 307 304 300 299 296
185 172 161 161 166 170 168 174 171 169 162 160 155 150 155 156 149 152 162 159 161 178 184 195 204 232 242 243 234 235 218 241 260 265 269 265 260 255 233 253 267 266 253 256 257 264 264 268 262 286 299 306 311 312 314 316 317 320 329 315 300 302 315 329 333 331 320 314 310 308 310 313 308 304 301 303 306 309 307 309 307 309 308 309 308
162 158 163 167 166 165 165 159 153 151 145 144 151 152 147 142 149 147 155 161 169 185 178 187 213 243 246 237 229 230 231 235 236 263 265 261 259 257 243 233 247 243 248 241 252 263 277 273 261 289 309 312 312 315 318 318 322 333 310 308 315 322 333 346 331 324 318 319 319 318 318 319 318 315 312 310 312 316 323 322 322 321 316 316 315
159 162 160 161 166 162 156 155 154 152 154 158 154 153 148 145 145 148 156 161 168 184 193 198 217 234 238 235 226 227 224 229 243 232 249 257 258 259 261 262 270 273 276 283 273 268 266 279 306 315 310 315 318 318 319 323 329 315 314 321 325 338 350 331 328 327 327 327 323 319 322 324 325 324 323 326 327 326 323 319 315 312 308 303 300
153 158 163 161 152 154 153 150 149 150 153 152 153 150 152 147 147 158 161 160 170 187 204 196 217 225 223 229 225 218 219 207 246 250 241 254 261 268 270 270 273 265 258 256 267 282 288 284 295 309 319 320 319 320 323 326 320 317 321 326 336 348 334 324 323 324 321 318 319 320 323 323 323 323 324 322 321 323 321 319 319 319 316 313 309
158 160 159 156 153 147 142 148 152 154 158 158 156 156 150 152 152 167 162 173 179 192 200 191 207 217 213 205 210 216 210 208 217 259 269 267 269 272 273 274 277 281 287 287 273 258 271 292 309 317 318 318 319 322 325 321 319 322 330 335 346 335 324 320 324 320 320 321 319 315 314 321 322 318 318 317 315 316 314 308 303 298 293 291 290
158 162 153 153 151 146 144 143 145 151 156 165 166 163 160 164 163 165 172 185 192 193 198 195 208 207 208 202 199 206 205 177 242 253 257 264 267 268 271 281 287 289 285 286 286 289 293 302 311 316 315 314 317 326 315 316 321 327 330 334 327 319 316 321 312 316 316 317 315 316 314 313 311 308 306 306 308 307 309 307 308 307 310 311 309
156 152 159 152 149 155 155 158 155 154 160 158 161 157 159 163 166 169 176 182 192 192 193 203 206 206 202 201 197 194 187 208 233 245 233 233 243 251 265 267 284 289 290 271 298 10 3 349 310 308 319 316 316 318 319 318 318 318 324 318 315 311 304 289 298 310 312 307 310 310 311 306 301 303 306 308 306 304 305 308 309 309 311 311 306
167 170 162 159 161 166 163 160 159 165 175 172 173 169 175 180 181 183 180 184 180 192 189 202 204 203 200 187 185 179 197 214 228 227 235 215 225 227 236 235 235 261 251 234 195 131 73 297 322 322 308 311 312 319 307 304 307 320 318 319 313 311 314 317 315 304 291 294 300 307 306 311 311 307 306 305 304 307 313 313 312 312 316 316 311
155 154 155 152 165 169 169 168 174 171 176 183 198 189 176 183 191 202 211 182 183 178 186 202 205 204 184 176 169 186 193 214 229 225 220 223 223 222 219 214 232 261 241 231 162 172 185 339 335 323 314 300 310 312 312 315 316 316 317 314 316 320 315 314 317 312 305 314 316 315 310 309 308 305 307 309 314 317 316 312 314 314 312 311 307
157 165 166 167 162 166 174 176 176 175 176 181 181 204 212 201 195 182 198 199 203 203 188 193 195 184 178 195 170 179 197 212 227 232 234 240 255 267 275 273 272 276 254 267 79 76 15 338 302 293 294 300 300 304 307 315 319 323 317 320 320 313 308 310 309 305 309 312 307 307 303 303 304 309 311 315 314 316 316 320 313 313 312 313 308
169 168 169 183 179 178 174 171 179 172 176 173 179 177 189 217 212 210 204 205 207 212 212 210 202 189 176 190 215 217 225 230 232 236 242 257 265 268 269 274 273 277 272 24 60 40 303 298 286 287 282 288 286 287 298 312 310 312 310 311 305 308 309 305 301 306 311 308 304 296 294 296 301 313 323 323 320 318 321 317 308 312 311 309 307
181 187 186 180 166 175 176 172 170 172 174 177 179 179 182 194 226 218 213 210 212 212 215 215 213 210 206 201 198 228 237 235 239 249 255 254 257 259 268 268 275 248 286 31 87 251 238 258 272 272 277 284 278 283 295 297 296 295 301 310 307 303 304 302 305 313 308 306 303 303 303 304 311 329 326 322 323 321 322 323 325 322 317 312 306
184 179 178 174 174 175 174 176 180 177 176 176 183 181 186 184 188 197 215 215 214 213 213 217 220 223 227 233 231 224 220 230 236 239 246 253 257 261 258 267 214 215 61 77 170 257 253 251 252 262 262 271 275 277 278 276 281 286 284 288 296 300 297 296 309 302 299 297 301 298 296 298 320 324 321 322 325 324 324 322 323 318 315 315 312
186 177 177 178 174 181 182 182 181 186 182 181 181 184 191 188 180 173 169 175 211 226 226 226 225 226 230 230 232 234 235 237 240 244 248 253 256 255 261 232 212 262 238 189 196 227 237 248 250 251 254 259 267 276 281 282 281 281 285 279 279 288 294 299 303 302 298 299 294 284 288 300 318 324 322 325 324 321 321 322 323 324 323 321 316
187 183 176 174 182 184 184 181 181 180 180 183 184 186 189 185 177 172 174 180 191 199 207 216 223 220 219 224 229 231 236 240 240 244 247 249 250 254 220 101 287 326 333 134 195 206 228 231 243 250 246 257 260 262 268 273 279 282 282 287 286 285 289 297 299 299 297 292 293 296 298 306 314 315 319 324 327 327 326 325 325 324 321 319 319
187 182 181 182 180 183 183 183 180 182 182 183 179 181 176 174 179 181 175 180 182 190 199 203 203 226 217 217 225 237 241 240 240 242 245 244 250 224 167 209 194 218 213 230 206 225 214 227 229 249 244 252 254 263 262 268 267 272 276 277 284 287 290 297 299 295 291 297 302 305 309 301 299 307 311 313 317 320 320 320 321 323 321 319 320
188 185 181 185 181 178 175 171 175 174 171 165 167 169 172 176 167 166 176 181 184 186 182 176 148 272 277 276 268 246 237 235 239 241 246 246 247 209 161 188 205 218 223 225 225 222 229 233 227 240 246 246 256 253 263 266 269 274 279 279 279 286 284 282 286 301 313 308 303 302 303 307 307 303 309 315 317 317 317 318 320 321 324 323 324
191 187 184 173 170 164 162 170 167 161 160 164 168 168 170 172 175 175 177 183 184 183 187 191 188 196 212 237 212 207 275 269 261 255 251 250 244 145 188 182 196 202 223 226 221 218 226 237 225 234 247 245 254 256 258 268 269 270 272 278 280 274 290 296 300 298 296 298 301 301 305 308 308 304 310 313 312 313 316 320 321 321 320 321 319
194 181 168 164 168 166 165 159 164 163 164 164 168 168 174 170 172 174 179 177 183 188 191 192 199 205 213 213 203 184 183 224 224 242 245 244 205 188 167 184 191 217 219 225 228 225 223 232 236 231 242 240 247 253 253 262 268 269 268 275 279 281 286 288 289 292 296 294 297 299 300 300 305 311 312 308 304 305 310 316 319 319 320 316 314
181 180 171 166 164 164 160 164 161 162 168 165 173 170 168 175 181 182 175 174 189 190 188 195 211 220 213 187 195 167 157 215 221 225 228 224 197 195 177 194 206 213 223 231 228 226 227 233 228 232 240 244 245 249 249 253 255 260 265 264 272 282 282 283 288 290 290 291 293 296 299 299 305 315 309 297 291 302 312 316 316 317 314 313 312
176 165 166 172 161 152 149 157 167 172 167 172 169 172 183 178 175 170 173 183 182 186 195 204 218 220 202 207 205 190 181 203 225 235 234 233 228 207 212 209 206 224 231 230 232 228 227 231 232 231 238 237 239 242 248 249 254 258 261 269 272 274 280 279 278 280 284 287 291 294 293 295 302 310 307 305 310 313 308 305 309 309 311 311 314
161 161 166 167 158 152 157 166 166 161 163 165 170 175 174 172 170 172 179 180 183 184 195 209 214 214 219 213 220 216 195 187 211 230 245 242 237 236 222 221 220 218 224 229 228 229 230 231 233 227 234 240 238 245 243 250 249 254 261 265 266 270 274 273 273 274 281 284 285 285 289 299 303 303 304 309 306 300 304 309 306 307 309 312 314
153 154 156 151 154 160 165 163 156 160 165 170 176 165 162 161 167 171 174 177 179 182 191 206 220 202 215 231 231 234 223 184 199 218 230 233 235 237 232 230 230 230 229 233 228 223 224 227 233 232 232 238 235 235 238 244 245 251 254 259 264 264 268 273 274 272 273 278 281 292 296 297 295 292 293 294 296 296 298 305 307 307 306 309 310
148 148 149 151 149 145 152 153 161 166 168 161 149 153 158 157 155 162 169 177 184 191 195 204 203 201 210 229 236 246 269 254 245 240 237 244 243 244 243 242 241 242 241 237 235 223 221 227 237 244 242 245 241 239 240 241 233 238 245 251 259 261 261 263 266 267 271 280 289 291 292 290 290 293 293 292 289 293 298 301 306 307 308 308 310
153 155 156 154 157 153 157 153 155 154 147 145 130 140 146 138 154 166 168 181 191 195 203 204 202 206 207 209 203 205 225 233 241 244 247 243 246 250 251 249 242 241 242 242 234 223 223 229 236 244 252 247 241 240 242 241 235 234 233 236 244 255 256 259 263 272 278 284 286 286 284 284 292 293 290 283 280 283 289 295 298 305 305 304 308
156 159 159 161 156 156 145 144 152 153 155 145 147 150 146 152 165 169 178 184 189 193 204 204 208 205 206 205 203 206 220 225 236 238 244 247 246 251 249 246 245 241 240 240 236 228 231 228 231 237 244 249 247 243 243 239 238 234 232 229 237 247 254 260 266 271 269 265 271 277 285 287 286 282 281 283 284 281 279 287 293 291 287 292 294
148 153 157 156 159 149 147 145 150 153 135 144 147 140 161 157 167 178 184 186 193 195 198 205 199 209 208 208 207 219 218 222 230 235 236 240 244 245 249 246 247 248 246 242 236 233 232 233 233 236 244 251 252 252 250 244 242 241 240 238 241 247 251 255 252 253 257 259 259 272 279 284 282 279 281 280 274 273 278 287 287 288 286 290 290
143 140 141 143 143 145 145 148 147 145 131 155 151 148 158 165 176 184 191 195 197 200 206 209 210 215 210 221 217 221 220 227 232 235 238 239 242 243 245 246 247 248 251 250 245 240 237 238 236 238 244 249 251 253 252 249 248 242 244 242 242 242 245 246 253 254 253 257 255 261 267 270 271 272 273 274 278 284 287 283 285 283 285 285 289
143 145 142 148 153 152 155 155 152 144 147 125 138 162 165 169 181 185 190 195 199 208 207 216 223 222 223 228 223 227 225 229 234 239 239 241 241 241 240 241 244 245 244 249 246 241 240 240 237 238 238 243 245 250 254 253 254 252 250 248 248 248 252 254 255 256 247 250 257 256 255 256 259 261 263 268 280 283 278 274 273 278 283 283 282
116 114 118 130 141 143 141 128 134 140 144 162 168 172 178 180 189 194 198 197 207 209 215 212 216 217 217 225 224 228 225 232 237 239 241 242 242 240 240 240 241 241 240 246 247 245 244 242 240 241 241 242 243 247 249 251 253 254 255 253 255 256 256 255 255 253 253 251 247 248 247 251 253 260 267 270 270 270 268 268 271 274 276 279 281
116 130 134 139 140 142 140 142 147 156 165 168 171 175 182 189 199 200 199 205 211 217 217 218 222 223 226 229 229 233 235 239 240 242 243 245 243 240 238 238 240 241 244 243 248 245 244 244 244 242 240 238 239 240 243 244 248 248 252 256 259 259 260 258 256 253 254 250 242 238 240 243 254 260 266 271 273 270 267 264 260 267 273 274 276